Weather History for Casper, WY

Change the Weather History Date:

Saturday, January 14, 2012

  Actual Average Record
Temperature  
Mean Temperature 30 °F 25 °F  
Max Temperature 42 °F 35 °F 55 °F (1995)
Min Temperature 18 °F 15 °F -40 °F (1972)
Degree Days  
Heating Degree Days 35 40  
Month to date heating degree days 526 565  
Since 1 July heating degree days 3426 3694  
Cooling Degree Days 0 0  
Month to date cooling degree days 0 0  
Year to date cooling degree days 0 0  
Moisture  
Dew Point 13 °F    
Average Humidity 48    
Maximum Humidity 61    
Minimum Humidity 35    
Precipitation  
Precipitation 0.00 in 0.02 in 0.26 in (1953)
Month to date precipitation 0.18 0.23  
Year to date precipitation 0.18 0.23  
Snow  
Snow 0.00 in 0.20 in - ()
Month to date snowfall 3.7 4.2  
Since 1 July snowfall 30.4 34.7  
Snow Depth -    
Sea Level Pressure  
Sea Level Pressure 30.02 in    
Wind  
Wind Speed 22 mph (SW)    
Max Wind Speed 32 mph    
Max Gust Speed 47 mph    
Visibility 10 miles    
Events      
T = Trace of Precipitation, MM = Missing Value Source: NWS Daily Summary

Daily Weather History Graph

Daily Weather History Graph

Search for Another Location

Airport:

Trip Planner

Search our weather history database for the weather conditions in past years. The results will help you decide how hot, cold, wet, or windy it might be!

Date:

Astronomy

Jan. 14, 2012 Rise Set
Actual Time 7:34 AM MST 4:55 PM MST
Civil Twilight 7:03 AM MST 5:26 PM MST
Nautical Twilight 6:28 AM MST 6:01 PM MST
Astronomical Twilight 5:54 AM MST 6:35 PM MST
Moon 11:30 PM MST (1/14) 10:11 AM MST (1/14)
Length of Visible Light 10h 23m
Length of Day
9h 20m
Waning Gibbous, 68% of the Moon is Illuminated
Jan 14
Waning Gibbous
Jan 16
Last Quarter
Jan 23
New
Jan 30
First Quarter
Feb 7
Full

Hourly Weather History & Observations

Time (MST) Temp. Windchill Dew Point Humidity Pressure Visibility Wind Dir Wind Speed Gust Speed Precip Events Conditions
12:53 AM 24.1 °F 13.1 °F 8.1 °F 51% 30.17 in 10.0 mi SSW 11.5 mph - N/A   Clear
1:53 AM 27.0 °F 15.2 °F 9.0 °F 47% 30.15 in 10.0 mi SW 15.0 mph - N/A   Mostly Cloudy
2:53 AM 26.1 °F 13.6 °F 9.0 °F 49% 30.15 in 10.0 mi SW 16.1 mph - N/A   Clear
3:53 AM 27.0 °F 14.7 °F 8.1 °F 45% 30.12 in 10.0 mi WSW 16.1 mph - N/A   Partly Cloudy
4:53 AM 27.0 °F 13.2 °F 9.0 °F 47% 30.14 in 10.0 mi SW 20.7 mph - N/A   Clear
5:53 AM 27.0 °F 14.3 °F 9.0 °F 47% 30.17 in 10.0 mi SW 17.3 mph - N/A   Clear
6:53 AM 28.0 °F 14.9 °F 10.0 °F 47% 30.18 in 10.0 mi SW 19.6 mph - N/A   Clear
7:53 AM 30.0 °F 17.5 °F 10.9 °F 45% 30.18 in 10.0 mi SW 19.6 mph 25.3 mph N/A   Clear
8:53 AM 30.9 °F 18.7 °F 10.9 °F 43% 30.17 in 10.0 mi SSW 19.6 mph 28.8 mph N/A   Clear
9:53 AM 33.1 °F 20.1 °F 12.0 °F 42% 30.17 in 10.0 mi SW 25.3 mph - N/A   Partly Cloudy
10:53 AM 35.1 °F 22.2 °F 12.0 °F 39% 30.14 in 10.0 mi SW 27.6 mph 39.1 mph N/A   Clear
11:53 AM 36.0 °F 23.9 °F 14.0 °F 41% 30.11 in 10.0 mi SW 25.3 mph 31.1 mph N/A   Clear
12:53 PM 37.0 °F 25.1 °F 12.9 °F 37% 30.03 in 10.0 mi SSW 26.5 mph 33.4 mph N/A   Clear
1:53 PM 36.0 °F 24.7 °F 15.1 °F 43% 29.97 in 10.0 mi SSW 21.9 mph - N/A   Clear
2:53 PM 41.0 °F 30.2 °F 17.1 °F 38% 29.90 in 10.0 mi SW 27.6 mph 46.0 mph N/A   Clear
3:53 PM 39.9 °F 28.0 °F 19.0 °F 43% 29.87 in 10.0 mi SW 32.2 mph 41.4 mph N/A   Clear
4:53 PM 41.0 °F 29.8 °F 18.0 °F 40% 29.88 in 10.0 mi SW 29.9 mph 39.1 mph N/A   Clear
5:53 PM 39.9 °F 29.2 °F 18.0 °F 41% 29.88 in 10.0 mi SW 25.3 mph 39.1 mph N/A   Clear
6:53 PM 39.0 °F 27.6 °F 18.0 °F 43% 29.86 in 10.0 mi SW 27.6 mph 38.0 mph N/A   Clear
7:53 PM 39.9 °F 29.0 °F 17.1 °F 40% 29.86 in 10.0 mi SW 26.5 mph 36.8 mph N/A   Clear
8:53 PM 37.0 °F - 17.1 °F 44% 29.88 in 10.0 mi North - - N/A   Clear
9:53 PM 37.9 °F 27.3 °F 16.0 °F 41% 29.86 in 10.0 mi SW 21.9 mph 29.9 mph N/A   Clear
10:53 PM 36.0 °F 24.2 °F 15.1 °F 43% 29.85 in 10.0 mi SSW 24.2 mph 31.1 mph N/A   Clear
11:53 PM 35.1 °F 24.1 °F 14.0 °F 42% 29.84 in 10.0 mi SSW 19.6 mph 25.3 mph N/A   Clear